Hourly Weather Roundup
Issued by NWS Central Illinois

Home | Current Version | Previous Version | Text Only | Print | Product List | Glossary On
Versions: 1 2 3 4 5 6 7 8 9 10 11 12 13 14 15 16 17 18 19 20 21 22 23 24 25 26 27 28 29 30 31 32 33 34 35 36 37 38 39 40 41 42 43 44 45 46 47 48 49 50
000
NZUS43 KILX 290410
HWRILX

AREA WEATHER ROUNDUP
NATIONAL WEATHER SERVICE, LINCOLN IL
1100 PM CDT TUE JUL 28 2015


CITY           SKY/WX    TMP DP  RH WIND       PRES   REMARKS
BLOOMINGTON    CLEAR     74  73  96 S8        29.97S
CHAMPAIGN      PTCLDY    74  72  93 CALM      29.97F
DANVILLE       PTCLDY    73  73  98 CALM      29.94F
DECATUR        CLEAR     75  72  90 CALM      29.97S
EFFINGHAM      MOCLDY    77  73  88 S3        29.98F
FLORA          MOCLDY    76  73  90 CALM      29.97F
GALESBURG      MOCLDY    80  77  91 CALM      29.97R HX  85
JACKSONVILLE   PTCLDY    82  79  90 SE6       29.95S HX  93
LACON          MOCLDY    76  72  86 CALM      29.95R
LAWRENCEVILLE  MOCLDY    79  76  90 S5        29.96F HX  83
LITCHFIELD     MOCLDY    79  74  84 SE5       29.97R HX  82
$$


CITY           SKY/WX    TMP DP  RH WIND       PRES   REMARKS
LINCOLN        PTCLDY    76  73  88 SE3       29.96R
MACOMB         PTCLDY    83  79  88 S5        29.95R HX  93
MATTOON        PTCLDY    76  71  85 CALM      29.96F
MT CARMEL AP   MOCLDY    79  72  78 SW6       29.97F HX  82
OLNEY-NOBLE AP MOCLDY    77  73  88 S3        29.97F
PARIS          PTCLDY    73  73  98 CALM      29.98S FOG
PEORIA         PTCLDY    81  72  74 CALM      29.96R HX  85
PONTIAC        PTCLDY    75  74  98 CALM      29.96S
RANTOUL        PTCLDY    76  75  95 SW3       29.97S
ROBINSON       PTCLDY    76  75  96 CALM      29.96F FOG
SPRINGFIELD    PTCLDY    82  76  81 S3        29.96R HX  89
TAYLORVILLE    PTCLDY    79  75  89 SE5       29.97R HX  82
$$

...REGIONAL REPORTS...


CITY           SKY/WX    TMP DP  RH WIND       PRES   REMARKS
CHICAGO O`HARE MOCLDY    79  74  84 S5        29.93F HX  82
KANKAKEE       PTCLDY    77  76  95 SE3       29.96S
MOLINE         CLOUDY    80  75  84 CALM      29.94R HX  85
MOUNT STERLING NOT AVBL
MOUNT VERNON   CLOUDY    77  70  78 CALM      29.97F
PITTSFIELD     CLEAR     82  79  89 CALM      29.98R HX  93
QUINCY         CLEAR     83  80  91 S5        29.95R HX  95
ROCKFORD       CLOUDY    77  73  87 SW5       29.96R
$$


CITY           SKY/WX    TMP DP  RH WIND       PRES   REMARKS
BURLINGTON     CLOUDY    78  76  93 N7        29.96R HX  81
CEDAR RAPIDS   LGT RAIN  71  71 100 N3        29.97R
DES MOINES     TSTM      72  69  90 SW8       29.99R FOG
KIRKSVILLE     PTCLDY    80  76  87 N16G26    30.00R HX  86
OTTUMWA        LGT RAIN  71  71 100 SE8       29.93F
ST LOUIS       PTCLDY    89  76  65 S3        29.96R HX 100
$$


CITY           SKY/WX    TMP DP  RH WIND       PRES   REMARKS
TERRE HAUTE    PTCLDY    78  76  93 CALM      29.96F HX  81
EVANSVILLE     CLOUDY    76  73  91 SW5       29.98F
INDIANAPOLIS   MOCLDY    81  72  74 S3        29.97F HX  85
LAFAYETTE      MOCLDY    77  74  90 CALM      29.95F
MADISON        CLOUDY    79  72  79 SW6       29.95R HX  82
MILWAUKEE      MOCLDY    75  67  76 S5        29.93S
$$




USA.gov is the U.S. government's official web portal to all federal, state and local government web resources and services.